This demonstration page uses our WeatherBlox Daily Observations layout. Learn more.

Left ArrowRight Arrow

Hourly Observations for January 5, 2015

Temp ( °F °C ) Dew Point ( °F °C ) Humidity (%) Winds ( mph kmh ) Pressure ( in mb ) Visibility ( mi km ) Precip ( " mm )
12:52 am 00:52 Cloudy with Light Snow 7 -13.9 1 -17.2 76 76 NNW 6 9 30.79 1043 4 6 0.00 0.03
1:52 am 01:52 Cloudy with Light Snow 8 -13.3 2 -16.7 76 76 WSW 5 7 30.78 1042 6 10 0.01 0.25
2:52 am 02:52 Cloudy with Light Snow 8 -13.3 2 -16.7 76 76 WSW 6 9 30.79 1043 9 14 0.00 0.03
3:52 am 03:52 Cloudy with Light Snow 9 -12.8 2 -16.7 73 73 WSW 6 9 30.77 1042 9 14 0.00 0.03
4:52 am 04:52 Cloudy with Light Snow 9 -12.8 3 -16.1 77 77 SSW 8 13 30.76 1042 9 14 0.00 0.03
5:52 am 05:52 Cloudy 8 -13.3 3 -16.1 80 80 SW 7 11 30.73 1041 10 16 0.00 0.03
6:52 am 06:52 Cloudy 9 -12.8 3 -16.1 77 77 SSW 6 9 30.71 1040 10 16 0.00 0.00
7:52 am 07:52 Cloudy 10 -12.2 3 -16.1 73 73 S 8 13 30.67 1039 10 16 0.00 0.00
8:52 am 08:52 Cloudy 10 -12.2 4 -15.6 76 76 S 10 17 30.64 1038 10 16 0.00 0.00
9:52 am 09:52 Cloudy 11 -11.7 4 -15.6 73 73 S 14 22 30.61 1037 10 16 0.00 0.00
10:33 am 10:33 Cloudy with Light Snow 10 -12 3 -16 72 72 S 14 22 30.62 1037 2 3 0.00 0.00
10:37 am 10:37 Cloudy with Light Snow 11 -11.7 5 -15 77 77 S 12 19 30.62 1037 2 2 0.00 0.03
10:52 am 10:52 Cloudy with Light Snow 11 -11.7 5 -15 77 77 S 12 19 30.58 1036 1 2 0.00 0.03
11:12 am 11:12 Mostly Cloudy with Light Snow 10 -12 5 -15 79 79 SSE 15 24 30.59 1036 1 1 0.00 0.00
11:26 am 11:26 Mostly Cloudy with Snow 10 -12 7 -14 85 85 SSE 14 22 30.56 1035 1 1 0.00 0.00
11:47 am 11:47 Cloudy with Light Snow 10 -12 7 -14 85 85 SSE 15 24 30.50 1033 2 2 0.01 0.25
11:52 am 11:52 Cloudy with Light Snow 10 -12.2 6 -14.4 84 84 SSE 14 22 30.50 1033 2 2 0.01 0.25
11:55 am 11:55 Cloudy with Light Snow 11 -11.7 6 -14.4 81 81 SSE 15 24 30.50 1033 3 5 0.00 0.03
12:04 pm 12:04 Cloudy 10 -12 5 -15 79 79 SSE 15 24 30.50 1033 10 16 0.00 0.00
12:52 pm 12:52 Cloudy 12 -11.1 4 -15.6 70 70 S 15 24 30.42 1030 10 16 0.00 0.03
1:52 pm 13:52 Cloudy 13 -10.6 4 -15.6 67 67 SE 17 28 30.35 1028 10 16 0.00 0.00
2:52 pm 14:52 Cloudy 13 -10.6 4 -15.6 67 67 SE 22 35 30.27 1025 10 16 0.00 0.00
3:52 pm 15:52 Cloudy 14 -10 4 -15.6 64 64 SSE 16 26 30.23 1024 10 16 0.00 0.00
4:52 pm 16:52 Cloudy 15 -9.4 5 -15 64 64 S 13 20 30.28 1025 10 16 0.00 0.00
5:52 pm 17:52 Cloudy 16 -8.9 5 -15 62 62 S 16 26 30.23 1024 10 16 0.00 0.00
6:52 pm 18:52 Cloudy 17 -8.3 7 -13.9 64 64 S 17 28 30.17 1022 10 16 0.00 0.00
7:52 pm 19:52 Cloudy 18 -7.8 9 -12.8 68 68 S 14 22 30.19 1022 10 16 0.00 0.00
8:52 pm 20:52 Cloudy 19 -7.2 10 -12.2 68 68 S 8 13 30.20 1023 10 16 0.00 0.00
9:52 pm 21:52 Cloudy 21 -6.1 12 -11.1 68 68 WSW 9 15 30.22 1023 10 16 0.00 0.00
10:52 pm 22:52 Mostly Cloudy 22 -5.6 14 -10 71 71 WNW 16 26 30.24 1024 10 16 0.00 0.00
11:52 pm 23:52 Mostly Cloudy 21 -6.1 13 -10.6 71 71 NNW 26 43 30.30 1026 10 16 0.00 0.00

Powered by AerisWeather